[[{"header":{"parameterUnit":"m.s-1","parameterCategory":1,"la1":30.2991,"la2":30.254,"lo1":-89.0895,"lo2":-89.0444,"dy":0.0017,"dx":0.0017,"nx":28,"ny":28,"refTime":"2024-06-13T09:00:00:Z","depth":0,"parameterNumber":2,"parameterNumberName":"U-component_of_WINDS"},"data":[0,0,0,0,0,0,0,0,0,0,0,0,0,0,0,0,0,0,0,0,0,0,0,0,0,0,0,0,0,0,0,0,0,0,0,0,0,0,0,0,0,0,0,0,0,0,0,0,0,0,0,0,0,0,0,0,0,0,-1.7022,-1.7022,0,-1.7028,-1.7028,-1.7028,-1.6955,-1.6953,-1.6951,-1.6949,-1.6955,-1.6957,-1.6959,0,0,0,0,0,0,0,0,0,0,0,0,0,-1.6948,-1.695,-1.7022,-1.7022,-1.7022,-1.7028,-1.7028,-1.7028,-1.6955,-1.6953,-1.695,-1.6948,-1.6954,-1.6957,-1.6959,0,0,0,0,0,0,0,0,0,0,0,0,0,-1.697,-1.695,-1.7022,-1.6987,-1.6984,-1.7028,-1.7028,-1.7028,-1.6956,-1.6953,-1.695,-1.6947,-1.6953,-1.6956,-1.6959,-1.7038,0,0,-1.6969,-1.697,0,0,0,0,0,0,0,0,-1.6969,-1.6973,-1.6992,-1.6989,-1.6986,-1.6988,-1.7004,-1.7032,-1.6956,-1.6966,-1.6949,-1.6945,-1.6968,-1.697,-1.6977,-1.7038,-1.7039,-1.6969,-1.6971,-1.6972,-1.6973,0,0,0,0,0,0,0,-1.6967,-1.6972,-1.7024,-1.6992,-1.6989,-1.697,-1.697,-1.7009,-1.6984,-1.6965,-1.696,-1.6962,-1.6966,-1.6975,-1.6977,-1.7039,-1.6969,-1.6971,-1.6973,-1.6975,-1.7164,-1.7167,0,0,0,0,0,0,-1.697,-1.6971,-1.7024,-1.7025,-1.697,-1.6974,-1.6974,-1.699,-1.6983,-1.6979,-1.6964,-1.6958,-1.6971,-1.6974,-1.6977,-1.7068,-1.6972,-1.6975,-1.6977,-1.7161,-1.7165,-1.7168,0,0,0,0,0,0,-1.6969,-1.6976,-1.7024,-1.6996,-1.7001,-1.6979,-1.6997,-1.6992,-1.7,-1.6983,-1.6978,-1.6978,-1.6969,-1.6973,-1.7023,-1.7067,-1.6976,-1.6979,-1.7157,-1.7162,-1.7167,-1.7251,0,0,0,0,0,0,-1.6967,-1.6976,-1.7006,-1.6998,-1.7003,-1.7071,-1.7,-1.6994,-1.7006,-1.6998,-1.6994,-1.699,-1.6967,-1.7019,-1.7026,-1.707,-1.6981,-1.7153,-1.7159,-1.7165,-1.7244,-1.7258,-1.727,0,0,0,0,0,-1.6965,-1.7029,-1.7007,-1.7014,-1.704,-1.7073,-1.7076,-1.7048,-1.701,-1.7039,-1.7028,-1.6991,-1.7062,-1.7025,-1.7032,-1.7077,-1.715,-1.7158,-1.7165,-1.7238,-1.7256,-1.727,0,0,0,0,0,0,-1.7043,-1.7028,-1.7003,-1.7067,-1.7072,-1.7061,-1.7097,-1.7067,-1.7082,-1.7074,-1.7038,-1.7038,-1.7095,-1.7091,-1.7051,-1.7153,-1.7099,-1.7108,-1.7153,-1.7169,-1.7182,-1.718,-1.6984,0,0,0,0,0,-1.7067,-1.7096,-1.7081,-1.7139,-1.7143,-1.712,-1.7133,-1.7111,-1.7115,-1.7116,-1.7109,-1.7114,-1.7137,-1.7153,-1.7173,-1.7244,-1.7242,-1.7279,-1.7292,-1.7302,-1.731,-1.7346,-1.7362,-1.7192,-1.7192,-1.7192,0,0,-1.7118,-1.7114,-1.7134,-1.7154,-1.7156,-1.7186,-1.7122,-1.7157,-1.7179,-1.7122,-1.7168,-1.7163,-1.7167,-1.7227,-1.7254,-1.7226,-1.7357,-1.7312,-1.732,-1.7322,-1.7355,-1.7371,-1.7386,-1.7197,-1.7196,-1.7195,0,0,-1.7226,-1.7226,-1.7274,-1.7276,-1.7279,-1.7264,-1.7275,-1.7269,-1.7263,-1.731,-1.7268,-1.7293,-1.7335,-1.7338,-1.7346,-1.7456,-1.7422,-1.7464,-1.7531,-1.7567,-1.758,-1.7592,-1.763,-1.7644,-1.7472,-1.7472,-1.7472,0,-1.7289,-1.7333,-1.7302,-1.7339,-1.7349,-1.73,-1.7347,-1.7352,-1.7361,-1.7369,-1.7339,-1.7389,-1.7388,-1.7448,-1.7475,-1.7483,-1.7495,-1.7463,-1.7581,-1.7592,-1.7602,-1.7638,-1.7653,-1.7477,-1.7477,-1.7476,-1.7476,0,-1.7409,-1.744,-1.7479,-1.7489,-1.7503,-1.7546,-1.7522,-1.754,-1.7517,-1.7505,-1.7553,-1.755,-1.7569,-1.7582,-1.756,-1.7639,-1.7622,-1.7587,-1.7532,-1.7624,-1.7657,-1.7671,-1.7484,-1.7483,-1.7481,-1.748,0,0,-1.7564,-1.7558,-1.7572,-1.7576,-1.7576,-1.7599,-1.764,-1.7658,-1.7674,-1.7683,-1.7716,-1.7752,-1.7719,-1.7728,-1.7706,-1.7738,-1.7824,-1.7698,-1.7698,-1.772,-1.791,-1.7935,-1.7952,-1.7802,-1.7805,-1.7807,-1.7909,0,-1.7668,-1.7736,-1.771,-1.778,-1.7808,-1.7762,-1.7797,-1.7801,-1.7791,-1.7813,-1.7802,-1.7828,-1.7784,-1.7789,-1.7818,-1.7807,-1.7861,-1.78,-1.7831,-1.7832,-1.783,-1.7969,-1.7996,-1.8092,-1.7922,-1.7924,-1.7926,0,-1.7797,-1.7811,-1.7884,-1.7879,-1.789,-1.7922,-1.7937,-1.7959,-1.7963,-1.7953,-1.7963,-1.7934,-1.7973,-1.792,-1.7973,-1.7932,-1.7943,-1.794,-1.7943,-1.7943,-1.7883,-1.7971,-1.8123,-1.8137,-1.7946,-1.7945,-1.7943,0,-1.7901,-1.7939,-1.7987,-1.7992,-1.7988,-1.8011,-1.801,-1.8011,-1.8024,-1.8037,-1.8045,-1.8063,-1.8072,-1.8086,-1.8063,-1.8027,-1.8119,-1.8064,-1.8111,-1.8112,-1.8131,-1.813,-1.8285,-1.8142,-1.8142,-1.8142,-1.8141,0,-1.8018,-1.8064,-1.8033,-1.8063,-1.8113,-1.8083,-1.8134,-1.8128,-1.8129,-1.8156,-1.8119,-1.8145,-1.8114,-1.8137,-1.8119,-1.8165,-1.817,-1.8163,-1.8157,-1.8165,-1.8166,-1.8171,-1.8163,-1.8145,-1.8145,-1.8144,-1.8143,0,-1.8142,-1.8123,-1.8172,-1.8164,-1.8164,-1.8201,-1.8194,-1.8221,-1.8209,-1.8244,-1.8251,-1.8232,-1.8258,-1.8236,-1.8262,-1.825,-1.831,-1.8296,-1.8309,-1.8304,-1.8352,-1.8347,-1.8513,-1.8533,-1.838,-1.8382,-1.8383,0,-1.8216,-1.8251,-1.8247,-1.8263,-1.8264,-1.829,-1.8303,-1.8276,-1.8291,-1.8298,-1.8324,-1.8347,-1.8363,-1.8406,-1.8394,-1.8414,-1.8398,-1.8456,-1.8401,-1.8407,-1.8397,-1.8394,-1.8397,-1.8466,-1.8468,-1.8469,-1.847,0,-1.8351,-1.834,-1.836,-1.8377,-1.8394,-1.8406,-1.8415,-1.843,-1.8402,-1.8421,-1.8447,-1.846,-1.8486,-1.8508,-1.8523,-1.8522,-1.8492,-1.8488,-1.85,-1.8507,-1.8512,-1.8508,-1.8337,-1.8484,-1.8482,-1.8481,-1.8481,-1.848,-1.845,-1.8478,-1.848,-1.8504,-1.8508,-1.8518,-1.8542,-1.8534,-1.8555,-1.8574,-1.8557,-1.8588,-1.8591,-1.8608,-1.8611,-1.8635,-1.8611,-1.8628,-1.8632,-1.8636,-1.8642,-1.851,-1.8638,-1.8637,-1.8637,-1.8637,-1.8636,0,-1.858,-1.858,-1.8602,-1.8616,-1.8635,-1.8606,-1.8614,-1.8632,-1.866,-1.8665,-1.8682,-1.8712,-1.8734,-1.8725,-1.8744,-1.8765,-1.8751,-1.8771,-1.8767,-1.8768,-1.8663,-1.865,-1.8781,-1.8781,-1.8781,-1.8781,-1.8781,-1.8781,-1.865,-1.8696,-1.8686,-1.8733,-1.8732,-1.8762,-1.8769,-1.8778,-1.8782,-1.8817,-1.8835,-1.883,-1.8829,-1.8848,-1.8867,-1.8864,-1.8871,-1.8896,-1.8887,-1.8789,-1.8775,-1.8761,-1.8749,-1.8898,-1.8898,-1.8989,-1.899,-1.899]},{"header":{"parameterUnit":"m.s-1","parameterCategory":1,"la1":30.2991,"la2":30.254,"lo1":-89.0895,"lo2":-89.0444,"dy":0.0017,"dx":0.0017,"nx":28,"ny":28,"refTime":"2024-06-13T09:00:00:Z","depth":0,"parameterNumber":3,"parameterNumberName":"V-component_of_WINDS"},"data":[0,0,0,0,0,0,0,0,0,0,0,0,0,0,0,0,0,0,0,0,0,0,0,0,0,0,0,0,0,0,0,0,0,0,0,0,0,0,0,0,0,0,0,0,0,0,0,0,0,0,0,0,0,0,0,0,0,0,-3.3014,-3.3015,0,-3.305,-3.305,-3.3051,-3.3001,-3.2999,-3.2998,-3.2996,-3.3029,-3.3032,-3.3034,0,0,0,0,0,0,0,0,0,0,0,0,0,-3.29,-3.2902,-3.3014,-3.3015,-3.3015,-3.305,-3.305,-3.3051,-3.3002,-3.2999,-3.2997,-3.2995,-3.3028,-3.3031,-3.3034,0,0,0,0,0,0,0,0,0,0,0,0,0,-3.2944,-3.2903,-3.3014,-3.2995,-3.2993,-3.305,-3.305,-3.3051,-3.3002,-3.2999,-3.2997,-3.2994,-3.3027,-3.3031,-3.3035,-3.3111,0,0,-3.3046,-3.3048,0,0,0,0,0,0,0,0,-3.2941,-3.2948,-3.2997,-3.2996,-3.2995,-3.3019,-3.3022,-3.3071,-3.3003,-3.2999,-3.2996,-3.2993,-3.3028,-3.3031,-3.3044,-3.3112,-3.3114,-3.3047,-3.3049,-3.3051,-3.3052,0,0,0,0,0,0,0,-3.2938,-3.2946,-3.3028,-3.2998,-3.2996,-3.2983,-3.2986,-3.3031,-3.3027,-3.2999,-3.2995,-3.3,-3.3026,-3.304,-3.3044,-3.3114,-3.3047,-3.305,-3.3052,-3.3054,-3.3247,-3.325,0,0,0,0,0,0,-3.2938,-3.2944,-3.3027,-3.3029,-3.2961,-3.2987,-3.2991,-3.3013,-3.3027,-3.3026,-3.3003,-3.2998,-3.3035,-3.304,-3.3045,-3.3135,-3.3051,-3.3054,-3.3056,-3.3244,-3.3248,-3.3251,0,0,0,0,0,0,-3.2936,-3.2946,-3.3026,-3.2986,-3.2995,-3.2992,-3.3018,-3.3016,-3.3029,-3.303,-3.3028,-3.3018,-3.3033,-3.304,-3.3095,-3.3135,-3.3056,-3.3059,-3.3241,-3.3245,-3.3249,-3.3315,0,0,0,0,0,0,-3.2933,-3.2945,-3.2975,-3.2987,-3.2997,-3.3076,-3.302,-3.3018,-3.3036,-3.3031,-3.3043,-3.3043,-3.3031,-3.309,-3.3099,-3.3139,-3.3062,-3.3237,-3.3243,-3.3248,-3.3309,-3.3321,-3.3331,0,0,0,0,0,-3.2929,-3.2991,-3.2977,-3.2987,-3.3035,-3.3079,-3.3085,-3.3071,-3.304,-3.3069,-3.3069,-3.3042,-3.313,-3.3096,-3.3106,-3.3148,-3.3235,-3.3241,-3.3248,-3.3304,-3.3319,-3.3331,0,0,0,0,0,0,-3.2983,-3.2993,-3.2977,-3.3045,-3.3062,-3.307,-3.3107,-3.3087,-3.3112,-3.3105,-3.3086,-3.309,-3.3149,-3.3154,-3.3116,-3.3222,-3.3177,-3.3185,-3.3217,-3.323,-3.3241,-3.3238,-3.3065,0,0,0,0,0,-3.3003,-3.304,-3.3046,-3.3105,-3.3115,-3.311,-3.3128,-3.3117,-3.3133,-3.3139,-3.3143,-3.3159,-3.319,-3.321,-3.3238,-3.331,-3.3312,-3.3344,-3.3355,-3.3364,-3.3371,-3.3409,-3.3423,-3.3272,-3.3272,-3.3272,0,0,-3.3045,-3.3055,-3.3078,-3.3117,-3.3128,-3.3165,-3.3116,-3.3157,-3.3184,-3.3145,-3.3198,-3.3202,-3.3218,-3.3282,-3.331,-3.3287,-3.3413,-3.3372,-3.3379,-3.3382,-3.3417,-3.3431,-3.3444,-3.3276,-3.3276,-3.3275,0,0,-3.3139,-3.3151,-3.3202,-3.3215,-3.3234,-3.323,-3.3242,-3.3254,-3.3256,-3.3309,-3.328,-3.3312,-3.3365,-3.3378,-3.3391,-3.3492,-3.3467,-3.3501,-3.3558,-3.3595,-3.3607,-3.3618,-3.3653,-3.3666,-3.3509,-3.3509,-3.3509,0,-3.3188,-3.3244,-3.323,-3.3274,-3.3292,-3.3259,-3.331,-3.3323,-3.335,-3.3362,-3.3336,-3.3403,-3.3412,-3.3478,-3.3503,-3.3515,-3.3528,-3.3499,-3.3607,-3.3617,-3.3627,-3.366,-3.3674,-3.3513,-3.3512,-3.3512,-3.3512,0,-3.3303,-3.3343,-3.3382,-3.341,-3.3431,-3.3478,-3.3471,-3.3494,-3.3481,-3.348,-3.3534,-3.3543,-3.3573,-3.3588,-3.3574,-3.3652,-3.3638,-3.361,-3.3564,-3.3645,-3.3676,-3.3689,-3.3519,-3.3517,-3.3516,-3.3515,0,0,-3.3432,-3.3453,-3.3467,-3.348,-3.3498,-3.3528,-3.3573,-3.3603,-3.3624,-3.3643,-3.368,-3.3727,-3.3701,-3.3717,-3.3705,-3.3737,-3.3816,-3.3706,-3.3706,-3.3726,-3.3902,-3.3922,-3.3937,-3.3801,-3.3803,-3.3805,-3.39,0,-3.3527,-3.3607,-3.3596,-3.3672,-3.3708,-3.3678,-3.3718,-3.3733,-3.3733,-3.3762,-3.3762,-3.3795,-3.3759,-3.3769,-3.38,-3.38,-3.3851,-3.3793,-3.3834,-3.3836,-3.3831,-3.3954,-3.3975,-3.4065,-3.3912,-3.3915,-3.3916,0,-3.3648,-3.3673,-3.3753,-3.3767,-3.3781,-3.3817,-3.3844,-3.3873,-3.3889,-3.3887,-3.3905,-3.3887,-3.3931,-3.3886,-3.3946,-3.3907,-3.3923,-3.3926,-3.3929,-3.3931,-3.388,-3.3959,-3.4093,-3.4107,-3.3935,-3.3934,-3.3932,0,-3.3733,-3.3787,-3.3843,-3.3854,-3.3871,-3.3897,-3.3905,-3.3919,-3.3938,-3.3961,-3.3973,-3.4001,-3.4016,-3.4037,-3.4027,-3.3995,-3.409,-3.4043,-3.4088,-3.4088,-3.4109,-3.4107,-3.4247,-3.412,-3.412,-3.412,-3.4119,0,-3.384,-3.389,-3.3881,-3.3915,-3.3971,-3.3957,-3.4012,-3.4016,-3.4029,-3.4062,-3.4038,-3.4069,-3.4054,-3.4084,-3.4077,-3.4128,-3.4135,-3.4133,-3.4131,-3.4135,-3.4136,-3.4145,-3.4139,-3.4123,-3.4122,-3.4122,-3.4121,0,-3.3944,-3.3941,-3.3999,-3.4011,-3.4015,-3.4055,-3.4065,-3.4096,-3.4094,-3.4137,-3.4146,-3.4144,-3.4178,-3.417,-3.4208,-3.4202,-3.4267,-3.4256,-3.4262,-3.4259,-3.4305,-3.43,-3.4454,-3.4474,-3.4335,-3.4337,-3.4338,0,-3.4012,-3.405,-3.4067,-3.4088,-3.4099,-3.4133,-3.4153,-3.4141,-3.4162,-3.4184,-3.4213,-3.4245,-3.4271,-3.4327,-3.4327,-3.4356,-3.4346,-3.4398,-3.435,-3.4353,-3.4346,-3.4344,-3.4347,-3.4407,-3.4409,-3.441,-3.4411,0,-3.4133,-3.4129,-3.4159,-3.4189,-3.4214,-3.4237,-3.4257,-3.4275,-3.4265,-3.429,-3.4326,-3.4346,-3.4384,-3.4417,-3.4443,-3.445,-3.4429,-3.4426,-3.4438,-3.4443,-3.4445,-3.4444,-3.4287,-3.4423,-3.4421,-3.4421,-3.442,-3.442,-3.4221,-3.4253,-3.427,-3.4305,-3.4319,-3.4338,-3.4369,-3.4372,-3.4402,-3.4433,-3.4424,-3.4465,-3.448,-3.4513,-3.4523,-3.4554,-3.4534,-3.4552,-3.4556,-3.456,-3.4566,-3.4441,-3.4559,-3.4558,-3.4558,-3.4558,-3.4558,0,-3.434,-3.4349,-3.4381,-3.4411,-3.4438,-3.4417,-3.4438,-3.4462,-3.4498,-3.4515,-3.4541,-3.4582,-3.4613,-3.4617,-3.4646,-3.467,-3.4661,-3.4678,-3.4676,-3.4678,-3.4582,-3.4569,-3.4685,-3.4685,-3.4685,-3.4685,-3.4685,-3.4685,-3.4405,-3.4459,-3.4458,-3.4518,-3.4527,-3.4568,-3.4582,-3.4599,-3.4613,-3.466,-3.4687,-3.4689,-3.47,-3.4731,-3.4758,-3.4759,-3.477,-3.4791,-3.4788,-3.4698,-3.4685,-3.4673,-3.466,-3.4794,-3.4794,-3.4881,-3.4882,-3.4882]}]]